Location: Bamhandehi
(21.0134°N, 82.1322°E)
Time: 12:19:48
(UTC+00:00)

Daily predictions for brighter satellites

Satellite Brightness Start Highest point End
(mag) Time Altitude Azimuth Time Altitude Azimuth Time Altitude Azimuth
Cosmos 1302 Rocket 4.0 13:17:22 10° NNW 13:22:35 86° ENE 13:27:50 10° SSE
Cosmos 1500 Rocket 3.6 13:20:35 10° S 13:24:47 55° E 13:29:00 10° NNE
Cosmos 292 Rocket 3.8 13:20:42 10° NNW 13:25:27 89° ENE 13:30:12 10° SSE
Yuri Rocket 3.1 13:21:15 10° WSW 13:26:25 89° SSE 13:30:40 10° ENE
CENTAUR R/B 3.5 13:24:09 10° SE 13:27:20 16° ESE 13:30:41 10° ENE
CZ-2D R/B 3.8 13:25:05 10° S 13:28:50 63° W 13:32:36 10° NNW
CSL-04 Rocket 3.8 13:24:34 10° SSE 13:29:42 52° ENE 13:34:48 10° N
Iridium 2 3.6 13:26:52 10° N 13:30:36 75° E 13:34:19 10° S
Delta 202 4.3 13:23:34 10° W 13:32:15 73° S 13:38:14 10° E
Cosmos 1441 Rocket 4.0 13:31:58 10° SSE 13:35:19 30° E 13:38:38 10° NNE
ARGOS 3.9 13:34:00 10° SE 13:38:43 32° ENE 13:43:25 10° NNE
HJ-1C 3.6 13:36:15 10° SSE 13:39:28 49° ENE 13:42:43 10° N
Okean-O 4.0 13:35:55 10° S 13:40:04 41° W 13:44:14 10° NNW
Skynet4D Del rocket 4.4 13:35:17 10° WNW 13:40:26 46° N 13:45:39 10° ENE
SJ-11-01 4.5 13:36:29 10° SSE 13:41:03 53° ENE 13:45:39 10° N
Cosmos 1328 Rocket 3.9 13:38:42 10° N 13:43:06 71° W 13:47:30 10° S
COSMOS 2406 4.4 13:37:47 10° SW 13:43:20 49° WNW 13:48:52 10° N
Cosmos 2082 Rocket 2.3 13:38:14 10° S 13:43:46 54° ESE 13:49:18 10° NNE
CZ-4 R/B 2.6 13:40:17 10° S 13:43:57 42° W 13:47:42 10° NNW
Sakura Rocket 4.3 13:36:34 10° WNW 13:44:45 67° SSW 13:49:55 13° SE
Ariane Rocket 4.1 13:41:42 11° ESE 13:45:29 24° ENE 13:49:29 10° NNE
GPS 2-15 Rocket1 4.4 13:41:53 10° SW 13:45:34 23° SSE 13:48:11 15° ESE
Cosmos 1782 3.0 13:43:04 10° N 13:46:58 48° E 13:50:51 10° SSE
Cosmos 1805 Rocket 3.8 13:44:31 10° SSE 13:48:44 47° E 13:52:59 10° NNE
Cosmos 407 Rocket 3.5 13:44:17 10° S 13:49:36 82° ESE 13:54:55 10° NNE
SL-08 R/B 4.4 13:43:43 10° S 13:49:57 72° E 13:56:05 10° N
Cosmos 1190 Rocket 4.0 13:46:23 10° S 13:51:33 65° ESE 13:56:47 10° NNE
CZ-2C R/B 2.8 13:48:45 10° NNE 13:53:48 49° E 13:58:56 10° S
CZ-3B R/B 3.4 13:51:08 10° W 13:54:06 61° S 13:59:38 17° ESE
Cosmos 1992 Rocket 4.0 13:50:12 10° N 13:55:22 62° ENE 14:00:29 10° SSE
Cosmos 1140 Rocket 3.4 13:56:44 10° S 14:01:57 81° ESE 14:07:12 10° NNE
deb Kosmos-1763 3.9 13:59:21 10° S 14:02:53 65° ESE 14:06:29 10° NNE
Cosmos 1023 Rocket 4.5 13:59:06 10° SSW 14:04:21 90° ESE 14:09:38 10° NNE
FREGAT/IRIS 4.2 14:05:47 17° NE 14:05:47 17° NE 14:06:54 10° NNE
Cosmos 1633 Rocket 4.0 14:06:01 25° ESE 14:06:46 26° E 14:10:25 10° NE
NOSS 3-2 (A) 3.2 14:01:33 10° SSW 14:06:55 87° WNW 14:12:42 10° NNE
Aureole 1 Rocket 4.1 14:01:11 10° S 14:06:58 62° E 14:14:25 10° NNE
NOSS 3-2 (C) 3.1 14:10:49 10° SSW 14:16:06 58° ESE 14:21:43 10° NE
ATLAS 5 CENTAUR R/B 2.8 14:12:20 10° NNW 14:18:34 52° ENE 14:22:13 27° SE
Meteor 2-6 Rocket 4.2 14:16:37 10° N 14:22:15 69° E 14:26:34 18° SSE
Cosmos 2084 Rocket 3.4 14:19:17 10° S 14:23:16 50° ESE 14:27:18 10° NE
USA 267 3.3 14:18:40 10° NE 14:25:13 81° NW 14:31:45 10° SW
FUSE 4.3 14:20:49 10° WNW 14:26:08 58° N 14:28:42 29° ENE
Cosmos 1980 Rocket 4.1 14:24:10 10° NE 14:25:55 12° ENE 14:25:55 12° ENE
Cosmos 1934 Rocket 4.1 14:23:57 15° SSE 14:29:03 52° E 14:35:11 10° NNE
CZ-2C R/B 4.4 14:26:28 10° SSW 14:30:55 35° W 14:35:16 10° NW
Cosmos 1656 3.6 14:25:27 10° N 14:30:57 67° ENE 14:33:07 37° SE
H-2A R/B 3.1 14:27:44 10° S 14:32:43 45° W 14:37:33 10° NNW
IRS-1A Rocket 4.2 14:34:37 24° SSE 14:38:06 89° WSW 14:43:50 10° NNW
OBJECT-B 3.2 14:40:31 15° NNE 14:40:31 15° NNE 14:41:18 10° N
Cosmos 1697 Rocket 3.2 14:35:03 10° N 14:40:14 38° ENE 14:40:23 38° ENE
Sich 1 4.1 14:36:53 10° SSW 14:41:07 46° W 14:45:23 10° N
CZ-2C R/B 3.6 14:36:41 10° N 14:41:11 83° WNW 14:44:27 18° SSW
USA 186 4.0 14:42:42 16° NW 14:42:42 16° NW 14:43:25 10° NW
Cosmos 1727 Rocket 4.3 14:35:54 10° N 14:42:11 68° W 14:48:26 10° S
SJ-6B 2.9 14:43:07 63° S 14:43:42 80° W 14:47:43 10° NNW
Cosmos 2228 Rocket 4.1 14:41:31 10° NNW 14:45:41 43° W 14:48:36 18° SSW
SL-8 R/B 4.2 14:41:53 10° NNW 14:46:29 44° NE 14:46:32 44° NE
Resurs 01 Rocket 3.4 14:55:04 21° NNE 14:55:04 21° NNE 14:56:49 10° NNE
GPS 2-17 Rocket1 4.0 14:50:39 10° W 14:54:08 35° SW 14:54:08 35° SW
VEP-3 3.5 14:51:48 10° W 14:57:31 71° SSW 15:02:03 39° ESE
SPOT 3 Rocket 3.7 14:59:50 59° NE 14:59:50 59° NE 15:04:26 10° N
Meteor 1-27 Rocket 3.7 14:54:29 10° N 15:00:25 74° E 15:00:51 71° ESE
Cosmos 972 4.3 14:56:50 10° NNW 15:01:26 79° N 15:01:26 79° N
BREEZE-M DEB (TANK) 4.3 15:05:09 10° NW 15:06:46 21° WNW 15:06:46 21° WNW
ATLAS 2A CENTAUR R/B 4.0 14:20:42 10° SW 15:09:04 66° SSE 15:12:52 46° ESE
Cosmos 1812 4.3 15:06:27 10° NNW 15:09:22 34° WNW 15:09:22 34° WNW
CENTAUR R/B 3.4 15:12:11 10° SW 15:17:15 40° WNW 15:23:00 10° N
CZ-3A R/B 3.6 14:45:08 10° W 15:18:06 89° S 15:20:48 57° ESE
Cosmos 1605 Rocket 4.0 15:25:29 76° NW 15:25:29 76° NW 15:31:15 10° N
Cosmos 2123 Rocket 4.1 15:23:32 10° N 15:28:52 67° N 15:28:52 67° N
ATLAS 5 CENTAUR R/B 4.1 15:26:15 10° SW 15:49:35 13° E 15:52:51 10° E
Skynet4D Del rocket 4.5 15:28:03 10° WNW 15:32:06 45° NNW 15:32:06 45° NNW
ATLAS 5 CENTAUR R/B 4.5 15:58:19 10° WNW 16:03:07 21° WSW 16:03:48 21° WSW
Cosmos 1980 Rocket 4.1 16:05:16 10° NNW 16:07:42 26° NW 16:07:42 26° NW
IDEFIX/ARIANE 42P 4.3 21:17:14 10° NNE 21:19:42 28° NNE 21:19:42 28° NNE
Aurora 2 Rocket 4.3 21:25:15 65° NNW 21:26:10 69° N 21:36:40 10° E
Cosmos 1844 Rocket 4.0 21:29:02 34° NNE 21:29:02 34° NNE 21:32:07 10° NNE
Lacrosse 5 rocket 3.4 21:46:37 27° E 21:46:37 27° E 21:49:27 10° ENE
ATLAS 3B CENTAUR R/B 3.5 21:36:47 23° WNW 21:46:44 78° NNE 21:53:20 10° ESE
Intelsat 5-1 Rocket 4.1 21:57:28 49° SSW 21:59:59 62° SSE 22:22:52 10° ENE
USA 281 3.7 21:57:18 10° NNE 22:03:41 54° ESE 22:06:52 29° S
Cosmos 1953 Rocket 4.3 21:59:24 10° N 22:03:43 50° E 22:03:50 50° E
ATLAS 2AS CENTAUR R/B 4.3 22:09:49 10° S 22:16:32 35° ESE 22:23:36 10° NE
Cosmos 1386 Rocket 4.4 22:11:42 10° N 22:17:43 84° E 22:22:51 15° S
Atlas Centaur 2 3.7 22:16:24 24° NW 22:19:52 39° N 22:27:08 10° ENE
Helios 1B 4.4 22:23:47 84° SSW 22:23:54 87° W 22:28:14 10° NNW
Meteosat 1 Rocket2 4.1 22:23:05 40° WNW 22:25:05 56° NNW 22:29:56 10° ENE
Cosmos 883 Rocket 4.4 22:24:24 46° SSW 22:26:11 67° W 22:32:24 10° N
SeaSat 1 2.4 22:21:24 10° NNE 22:26:16 64° WNW 22:26:43 61° W
Centaur AC-72 3.0 22:25:40 43° WSW 22:27:33 64° S 22:37:56 10° ESE
MSX 4.4 22:24:51 10° N 22:30:07 38° WNW 22:30:11 38° WNW
SWIFT 3.5 22:30:45 30° SSE 22:30:45 30° SSE 22:34:13 10° ESE
Cosmos 494 Rocket 3.9 22:27:10 10° NNW 22:32:22 88° W 22:37:35 10° SSE
DELTA 2 R/B (1) 3.5 22:32:18 50° WSW 22:33:49 87° NW 22:39:27 10° NE
PSLV R/B 3.6 22:32:25 10° N 22:36:39 53° WNW 22:36:42 53° W
Aureole 2 Rocket 4.2 22:38:07 17° SE 22:39:13 22° E 22:41:29 10° NE
Meteor 1-31 Rocket 4.3 22:40:24 10° NNE 22:43:54 34° E 22:47:22 10° SSE
Cosmos 1745 Rocket 4.1 22:38:02 10° NNW 22:43:58 49° W 22:48:07 19° SSW
Cosmos 1484 Rocket 3.9 22:42:32 10° NNE 22:46:03 41° E 22:49:38 10° S
GPS 2-12 Rocket1 3.4 22:47:27 39° SW 22:48:52 56° S 22:53:34 10° E
Hubble Space Telescope 2.4 22:46:51 18° NW 22:48:54 28° N 22:52:30 10° ENE
CZ-2C R/B 2.6 22:45:32 10° N 22:50:00 47° WNW 22:51:34 34° SW
deb Chang Zheng 4 3.5 22:45:42 10° N 22:50:00 64° WNW 22:51:59 31° SSW
DELTA 4 R/B 4.0 22:42:21 23° SW 22:51:20 52° SSE 22:55:51 10° E
TSX-5 3.6 22:52:34 44° WNW 22:52:34 44° WNW 22:55:31 10° N
Cosmos 1812 Rocket 3.4 22:50:24 14° S 22:54:03 88° E 22:58:22 10° N
CZ-4B R/B 2.3 22:57:31 10° SSE 23:00:41 48° ENE 23:03:48 10° N
ADEOS Rocket 4.4 22:55:13 10° SSE 23:02:27 54° ENE 23:09:57 10° N
Delta 142 4.3 23:02:35 26° SW 23:03:08 27° SSW 23:06:43 10° SSE
ADEOS 3.6 22:58:41 10° N 23:03:48 59° WNW 23:08:32 12° SSW
Cosmos 2278 Rocket 2.2 23:01:43 16° SSW 23:06:14 65° WNW 23:11:51 10° N
H-2A R/B 2.9 23:08:45 24° WSW 23:09:07 24° W 23:12:28 10° NW
Cosmos 1076 Rocket 4.5 23:07:22 10° N 23:11:36 51° E 23:15:50 10° SSE
Cosmos 1400 Rocket 2.7 23:09:27 11° SSW 23:13:10 60° W 23:17:00 10° N
Cosmos 1455 2.4 23:11:26 13° SSW 23:14:38 48° W 23:18:22 10° N
Chandra Rocket (1) 2.9 23:08:42 17° WSW 23:16:53 77° SSE 23:20:38 10° ENE
CZ-4B R/B 3.4 23:14:30 10° NNE 23:18:54 69° ESE 23:23:04 10° S
Cosmos 1825 4.3 23:16:25 10° NNE 23:19:46 30° E 23:23:05 10° SE
ASTEX 1 3.5 23:15:21 10° N 23:20:15 78° E 23:25:10 10° S
ASTRO E2 2.9 23:20:01 17° SW 23:22:57 62° SSE 23:26:51 10° ENE
Cosmos 1709 Rocket 4.3 23:18:12 10° NNW 23:23:52 41° W 23:29:30 10° SSW
Lacrosse 5 rocket 3.2 23:22:17 14° W 23:24:38 20° NW 23:28:00 10° N
ALOS 2.3 23:20:31 10° N 23:25:07 61° WNW 23:29:42 10° SSW
SEDSat Delta rocket 4.1 23:19:58 15° WSW 23:25:36 80° SSE 23:32:25 10° ENE
ERS-2 3.6 23:25:25 15° WSW 23:26:17 17° W 23:28:39 10° WNW
Cosmos 1689 Rocket 3.5 23:24:06 10° SSE 23:26:50 40° ENE 23:29:35 10° N
DELTA 2 R/B(2) 4.1 23:25:37 14° SW 23:28:50 86° SE 23:31:28 10° NE
Meteor 2-10 Rocket 4.3 23:30:13 10° SW 23:34:44 32° W 23:39:24 10° NNW
ATLAS 2A CENTAUR R/B 2.9 23:38:49 10° WSW 23:39:51 12° SW 23:40:49 10° S
COSMOS 2455 4.1 23:34:25 10° S 23:40:01 42° ESE 23:45:39 10° NE
CREW DRAGON DEMO-1 DEB 2.8 23:37:15 10° SW 23:40:16 68° NW 23:43:19 10° NE
SAR-Lupe-4 4.2 23:37:45 10° SSW 23:40:59 33° W 23:44:15 10° NW
Cosmos 1315 Rocket 2.9 23:37:53 10° S 23:41:59 89° E 23:46:07 10° N
Cosmos-2242 3.2 23:37:57 10° SSW 23:42:12 54° W 23:46:28 10° N
NOSS 3-4 (A) 3.9 23:37:56 10° SW 23:43:25 40° WNW 23:49:00 10° N
NOSS 3-4 (C) 3.9 23:38:03 10° SW 23:43:33 41° WNW 23:49:09 10° N
ATLAS 2A CENTAUR R/B 2.9 23:40:50 10° WSW 23:43:46 29° S 23:51:36 10° SE
USA 81 4.2 23:39:10 10° N 23:44:27 84° E 23:49:43 10° S
Nadezhda 1 Rocket 4.1 23:39:08 10° SSW 23:45:29 69° W 23:51:50 10° N
GPS 2-04 Rocket1 2.4 23:42:02 10° WSW 23:45:36 88° NNW 23:49:20 10° ENE
Cosmos 2058 3.5 23:41:56 10° NNW 23:45:48 37° W 23:49:41 10° SSW
Cosmos 2251 Rocket 4.2 23:42:07 10° N 23:47:27 64° ENE 23:52:45 10° SSE
